Estación de Polizones INIA

Ultimos registro cada 15 minutos 53
Estación Fecha / Hora Temperatura Humedad Lluvia Velocidad Dirección Radiación Presion
53 Polizones INIA 06-09-2026 13:00 13,3 36,1 0 3 72 664,1 1002
52 Polizones INIA 06-09-2026 12:45 13,1 36,7 0 2,3 76 662,9 1002
51 Polizones INIA 06-09-2026 12:30 12,8 34,1 0 2 64 660,9 0
50 Polizones INIA 06-09-2026 12:15 12,3 36,5 0 2,9 61 656,8 902
49 Polizones INIA 06-09-2026 12:00 12 35 0 2,1 76 642,4 1003
48 Polizones INIA 06-09-2026 11:45 11,6 38,3 0 2,2 69 627,7 1003
47 Polizones INIA 06-09-2026 11:30 11,2 36 0 2,4 61 609,6 1004
46 Polizones INIA 06-09-2026 11:15 11 40,9 0 2,3 64 588,4 1004
45 Polizones INIA 06-09-2026 11:00 10,6 39,8 0 2,4 53 563,9 1004
44 Polizones INIA 06-09-2026 10:45 9,7 49,6 0 0,9 54 535,1 1005
43 Polizones INIA 06-09-2026 10:30 8,3 50,8 0 0,8 50 504,5 1005
42 Polizones INIA 06-09-2026 10:15 6,6 55,8 0 0 0 473,4 1005
41 Polizones INIA 06-09-2026 10:00 5,3 65,1 0 0 0 437,5 1006
40 Polizones INIA 06-09-2026 09:45 4,3 72,9 0 0 0 398,4 1005
39 Polizones INIA 06-09-2026 09:30 2,9 80,9 0 0 0 358,1 1006
38 Polizones INIA 06-09-2026 09:15 2,2 85,1 0 0 0 318,4 1006
37 Polizones INIA 06-09-2026 09:00 0,9 90,8 0 0 0 281,2 1007
36 Polizones INIA 06-09-2026 08:45 0 92,2 0 0 0 172,7 1005
35 Polizones INIA 06-09-2026 08:30 -0,6 94,1 0 0 0 108,7 1007
34 Polizones INIA 06-09-2026 08:15 -1 95,1 0 0 0 137,7 1006
33 Polizones INIA 06-09-2026 08:00 -1,9 96,5 0 0 0 31 1006
32 Polizones INIA 06-09-2026 07:45 -2,1 96 0 0 0 13,2 1006
31 Polizones INIA 06-09-2026 07:30 -2,6 96,4 0 0 0 8,3 1006
30 Polizones INIA 06-09-2026 07:15 -2,9 96,2 0 0 0 3,8 1006
29 Polizones INIA 06-09-2026 07:00 -3 95,9 0 0 0 0,8 1006
28 Polizones INIA 06-09-2026 06:45 -3,3 96,3 0 0 0 0,1 1006
27 Polizones INIA 06-09-2026 06:30 -2,9 95 0 0 0 0 1006
26 Polizones INIA 06-09-2026 06:15 -2,9 95,4 0 0 0 0 1006
25 Polizones INIA 06-09-2026 06:00 -2,5 95,1 0 0 0 0 1007
24 Polizones INIA 06-09-2026 05:45 -2,4 95,3 0 0 0 0 1007
23 Polizones INIA 06-09-2026 05:30 -2,6 94,8 0 0 0 0 1007
22 Polizones INIA 06-09-2026 05:15 -2,3 94,4 0 0 0 0 1007
21 Polizones INIA 06-09-2026 05:00 -1,2 93,9 0 0 0 0 1007
20 Polizones INIA 06-09-2026 04:45 -0,9 94,2 0 0 0 0 1008
19 Polizones INIA 06-09-2026 04:30 -0,9 95,3 0 0 0 0 1008
18 Polizones INIA 06-09-2026 04:15 -0,8 95,5 0 0 0 0 1008
17 Polizones INIA 06-09-2026 04:00 -0,8 95,9 0 0 0 0 1008
16 Polizones INIA 06-09-2026 03:45 -1 96,5 0 0 0 0 1008
15 Polizones INIA 06-09-2026 03:30 -1 96,2 0 0 0 0 1009
14 Polizones INIA 06-09-2026 03:15 -1,6 96,5 0 0 0 0 1009
13 Polizones INIA 06-09-2026 03:00 -1,8 96,5 0 0 0 0 1009
12 Polizones INIA 06-09-2026 02:45 -1,8 96 0 0 0 0 1009
11 Polizones INIA 06-09-2026 02:30 -1,7 95,9 0 0 0 0 1010
10 Polizones INIA 06-09-2026 02:15 -1,6 95,5 0 0 0 0 1010
9 Polizones INIA 06-09-2026 02:00 -0,9 95,5 0 0 0 0 1010
8 Polizones INIA 06-09-2026 01:45 -0,8 95,2 0 0 0 0 1010
7 Polizones INIA 06-09-2026 01:30 -1,2 95,4 0 0 0 0 1011
6 Polizones INIA 06-09-2026 01:15 -0,5 94,2 0 0 0 0 1011
5 Polizones INIA 06-09-2026 01:00 -0,8 95,6 0 0 0 0 1011
4 Polizones INIA 06-09-2026 00:45 -0,6 94,7 0 0 0 0 1011
3 Polizones INIA 06-09-2026 00:30 -0,7 95,3 0 0 0 0 1011
2 Polizones INIA 06-09-2026 00:15 -1 94,2 0 0 0 0 1011
1 Polizones INIA 06-09-2026 00:00 -0,2 92,6 0 0 0 0 1012